Cotulla, TX

4:44 PM CST on November 22, 2019 (GMT -0600)
Cotulla-La Salle County

Weather History for KCOT - August, 2019

Change the Weather History Date:

Tuesday, August 6, 2019

  Actual Average Record
Temperature  
Mean Temperature 90 °F -  
Max Temperature 105 °F 97 °F 108 °F (2013)
Min Temperature 79 °F 73 °F 71 °F (1998)
Cooling Degree Days 26    
Growing Degree Days 40 (Base 50)    
Moisture  
Dew Point 70 °F    
Average Humidity 56    
Maximum Humidity 84    
Minimum Humidity 23    
Precipitation  
Precipitation 0.00 in - - ()
Sea Level Pressure  
Sea Level Pressure 29.87 in    
Wind  
Wind Speed 9 mph (SE)    
Max Wind Speed 22 mph    
Max Gust Speed 30 mph    
Visibility 10 miles    
Events      
Averages and records for this station are not official NWS values.
T = Trace of Precipitation, MM = Missing Value Source: NWS Daily Summary

Daily Weather History Graph

Daily Weather History Graph

Search for Another Location

Airport or City:

Astronomy

Aug. 06, 2019 Rise Set
Actual Time 7:01 AM CDT 8:23 PM CDT
Civil Twilight 6:36 AM CDT 8:48 PM CDT
Nautical Twilight 6:06 AM CDT 9:18 PM CDT
Astronomical Twilight 5:34 AM CDT 9:50 PM CDT
Moon 12:57 PM CDT (8/6) 12:04 AM CDT (8/6)
Length of Visible Light 14h 12m
Length of Day
13h 22m
Waxing Crescent, 39% of the Moon is Illuminated
Aug 6
Waxing Crescent
Aug 7
First Quarter
Aug 15
Full
Aug 23
Last Quarter
Aug 30
New

Hourly Weather History & Observations

Time (CDT) Temp. Heat Index Dew Point Humidity Pressure Visibility Wind Dir Wind Speed Gust Speed Precip Events Conditions
12:53 AM 84.9 °F 90.7 °F 72.0 °F 65% 29.89 in 10.0 mi SSE 11.5 mph - N/A   Clear
1:53 AM 84.0 °F 89.6 °F 72.0 °F 67% 29.90 in 10.0 mi SSE 10.4 mph - N/A   Clear
2:53 AM 82.0 °F 87.4 °F 73.0 °F 74% 29.88 in 10.0 mi SSE 8.1 mph - N/A   Clear
3:53 AM 81.0 °F 85.8 °F 73.0 °F 77% 29.88 in 10.0 mi SSE 4.6 mph - N/A   Clear
4:53 AM 80.1 °F 84.2 °F 73.0 °F 79% 29.88 in 10.0 mi Calm Calm - N/A   Clear
5:53 AM 79.0 °F - 73.0 °F 82% 29.87 in 10.0 mi East 5.8 mph - N/A   Clear
6:53 AM 79.0 °F - 73.9 °F 84% 29.88 in 10.0 mi East 4.6 mph - N/A   Clear
7:53 AM 80.1 °F 84.5 °F 73.9 °F 81% 29.91 in 10.0 mi ESE 8.1 mph - N/A   Clear
8:53 AM 84.0 °F 91.9 °F 75.0 °F 74% 29.91 in 10.0 mi ESE 8.1 mph - N/A   Clear
9:53 AM 86.0 °F 93.8 °F 73.9 °F 67% 29.93 in 10.0 mi SSE 6.9 mph - N/A   Clear
10:53 AM 89.1 °F 98.0 °F 73.9 °F 61% 29.93 in 10.0 mi ESE 6.9 mph - N/A   Clear
11:53 AM 93.9 °F 100.3 °F 70.0 °F 46% 29.92 in 10.0 mi SE 8.1 mph - N/A   Clear
12:53 PM 97.0 °F 100.4 °F 66.0 °F 36% 29.90 in 10.0 mi ESE 9.2 mph 17.3 mph N/A   Clear
1:53 PM 99.0 °F 101.7 °F 64.0 °F 32% 29.87 in 10.0 mi SSE 9.2 mph 17.3 mph N/A   Partly Cloudy
2:53 PM 100.9 °F 103.3 °F 63.0 °F 29% 29.85 in 10.0 mi ESE 11.5 mph 16.1 mph N/A   Scattered Clouds
3:53 PM 102.0 °F 103.3 °F 61.0 °F 26% 29.82 in 10.0 mi Variable 6.9 mph - N/A   Clear
4:53 PM 102.0 °F 102.7 °F 60.1 °F 25% 29.80 in 10.0 mi East 11.5 mph 21.9 mph N/A   Scattered Clouds
5:53 PM 102.9 °F 103.0 °F 59.0 °F 23% 29.79 in 10.0 mi SSE 11.5 mph - N/A   Clear
6:53 PM 102.0 °F 102.7 °F 60.1 °F 25% 29.78 in 10.0 mi East 8.1 mph - N/A   Partly Cloudy
7:53 PM 93.9 °F 100.8 °F 71.1 °F 47% 29.80 in 10.0 mi SE 21.9 mph 29.9 mph N/A   Mostly Cloudy
8:53 PM 91.0 °F 97.6 °F 71.1 °F 52% 29.82 in 10.0 mi SE 17.3 mph 24.2 mph N/A   Clear
9:53 PM 89.1 °F 97.0 °F 73.0 °F 59% 29.84 in 10.0 mi SE 16.1 mph 24.2 mph N/A   Clear
10:53 PM 88.0 °F 96.5 °F 73.9 °F 63% 29.86 in 10.0 mi SE 15.0 mph - N/A   Clear
11:53 PM 87.1 °F 95.4 °F 73.9 °F 65% 29.88 in 10.0 mi SE 11.5 mph - N/A   Clear